This is the latest recevied weather packets stored in our database for station/object K7DC. If no packets are shown the sender has not sent any weather packets the latest 10 day(s).
| Time | Temp. | Humidity | Pressure | Rain* | Wind** | Luminosity | Snow |
|---|---|---|---|---|---|---|---|
| 1788348380 | 23.33° C | 73% | 1017.1 hPa | 0 mm | - | 0 W/m² | - |
| 1788348078 | 23.33° C | 73% | 1017.2 hPa | 0 mm | - | 0 W/m² | - |
| 1788347773 | 23.33° C | 73% | 1017.1 hPa | 0 mm | - | 0 W/m² | - |
| 1788347469 | 23.33° C | 73% | 1017.1 hPa | 0 mm | - | 0 W/m² | - |
| 1788347165 | 23.33° C | 74% | 1017.1 hPa | 0 mm | - | 0 W/m² | - |
| 1788346861 | 23.33° C | 73% | 1016.9 hPa | 0 mm | - | 0 W/m² | - |
| 1788346561 | 23.33° C | 73% | 1016.9 hPa | 0 mm | - | 0 W/m² | - |
| 1788346261 | 23.33° C | 73% | 1017.3 hPa | 0 mm | - | 0 W/m² | - |
| 1788345956 | 23.33° C | 72% | 1017.2 hPa | 0 mm | - | 0 W/m² | - |
| 1788345651 | 23.33° C | 72% | 1017.2 hPa | 0 mm | - | 0 W/m² | - |
| 1788345346 | 22.78° C | 74% | 1017.3 hPa | 0 mm | - | 0 W/m² | - |
| 1788345041 | 22.78° C | 76% | 1017.4 hPa | 0 mm | - | 0 W/m² | - |
| 1788344738 | 23.33° C | 72% | 1017.6 hPa | 0 mm | - | 0 W/m² | - |
| 1788344454 | 23.33° C | 73% | 1017.3 hPa | 0 mm | - | 0 W/m² | - |
| 1788344130 | 23.33° C | 75% | 1017.3 hPa | 0 mm | - | 0 W/m² | - |
| 1788343828 | 23.33° C | 74% | 1017.3 hPa | 0 mm | - | 0 W/m² | - |
| 1788343529 | 23.33° C | 71% | 1017.2 hPa | 0 mm | - | 0 W/m² | - |
| 1788343228 | 23.33° C | 72% | 1017.2 hPa | 0 mm | - | 0 W/m² | - |
| 1788342928 | 23.89° C | 71% | 1017.1 hPa | 0 mm | - | 0 W/m² | - |
| 1788342627 | 23.89° C | 72% | 1017.6 hPa | 0 mm | - | 0 W/m² | - |
| 1788342323 | 23.89° C | 71% | 1017.2 hPa | 0 mm | - | 0 W/m² | - |
| 1788342018 | 23.89° C | 70% | 1017.2 hPa | 0 mm | - | 0 W/m² | - |
| 1788341713 | 23.89° C | 70% | 1017.1 hPa | 0 mm | - | 0 W/m² | - |
| 1788341413 | 24.44° C | 70% | 1017.4 hPa | 0 mm | - | 0 W/m² | - |
| 1788341108 | 24.44° C | 69% | 1017.1 hPa | 0 mm | - | 0 W/m² | - |
* Rain latest hour (hover to see other rain measurements)
** Current wind speed in m/s (hover to see current wind gust speed)